Date String (YYYY-MM-DD hh:mm:ss) UTC,Instrument flags,absolute air pressure of the measurement (hPa),sample flow rate (lpm),inlet stack bypass flow (lpm),air temperature of the measurement (°C),ambient temperature measured by the external sensor (°C),aerosol sample conditioner tube jacket temperature (°C),OPC LED temperature (°C),internal box temperature (°C),relative humidity of the measurement (%),span deviation,mass concentration of particles derived from Lorenz-Mie calculation of OPC scattering (μg/m³),mass concentration of particles derived from Lorenz-Mie calculation of OPC scattering (μg/m³),mass concentration of particles derived from Lorenz-Mie calculation of OPC scattering (μg/m³)
DateTimeUTC,F1_M11,P_M11,Q1_M11,Q2_M11,T1_M11,T2_M11,T3_M11,T4_M11,T5_M11,U1_M11,ZSPAN_M11,X2_M11,X0_M11,X1_M11
2023-08-30 13:00:00,SystemResetWarning,0833.1,5.00,000.00,028.8,027.6,000.0,037.3,030.4,24.9,0000.0,0004.72,0008.47,0004.32
2023-08-30 13:01:00,SystemResetWarning,0833.2,5.00,000.00,028.8,027.6,000.0,037.3,030.4,24.3,0000.0,0004.70,0008.88,0004.28
2023-08-30 13:02:00,SystemResetWarning,0833.2,5.00,000.00,028.8,027.6,000.0,037.4,030.4,24.4,0000.0,0004.68,0008.83,0004.24
2023-08-30 13:03:00,SystemResetWarning,0833.2,5.00,000.00,028.8,027.6,000.0,037.4,030.5,24.4,0000.0,0004.65,0008.71,0004.21
2023-08-30 13:04:00,SystemResetWarning,0833.2,5.00,000.00,028.9,027.7,000.0,037.4,030.5,24.6,0000.0,0004.63,0008.70,0004.19
2023-08-30 13:05:00,SystemResetWarning,0833.2,5.00,000.00,028.9,027.7,000.0,037.4,030.5,24.6,0000.0,0004.61,0008.71,0004.18
2023-08-30 13:06:00,SystemResetWarning,0833.1,5.00,000.00,028.9,027.7,000.0,037.4,030.5,24.5,0000.0,0004.60,0008.77,0004.18
2023-08-30 13:07:00,SystemResetWarning,0833.2,5.00,000.00,028.9,027.7,000.0,037.4,030.5,24.6,0000.0,0004.61,0008.80,0004.18
2023-08-30 13:08:00,SystemResetWarning,0833.2,4.99,000.00,028.9,026.7,000.0,037.4,030.4,24.9,0000.0,0004.61,0008.86,0004.18
2023-08-30 13:09:00,SystemResetWarning,0833.2,5.00,000.00,028.8,025.1,000.0,037.2,030.1,24.8,0000.0,0004.59,0008.58,0004.16
2023-08-30 13:10:00,SystemResetWarning,0833.2,5.00,000.00,028.8,024.8,000.0,037.1,029.9,25.2,0000.3,0004.56,0008.24,0004.16
2023-08-30 13:11:00,SystemResetWarning,0833.1,5.01,000.00,028.6,025.0,000.0,037.2,029.8,25.3,0002.5,0004.58,0008.28,0004.17
2023-08-30 13:12:00,SystemResetWarning,0833.1,5.00,000.00,028.5,025.4,000.0,037.2,029.8,25.1,0001.3,0004.63,0007.86,0004.23
2023-08-30 13:13:00,SystemResetWarning,0833.1,5.00,000.00,028.5,025.7,000.0,037.2,029.9,25.1,0002.8,0004.65,0007.69,0004.26
2023-08-30 13:14:00,SystemResetWarning,0833.1,5.00,000.00,028.5,026.0,000.0,037.2,030.0,24.9,0003.1,0004.64,0007.75,0004.27
2023-08-30 13:15:00,SystemResetWarning,0833.1,5.01,000.00,028.5,026.3,000.0,037.2,030.0,24.6,0003.3,0004.64,0007.72,0004.27
2023-08-30 13:16:00,SystemResetWarning,0833.0,5.00,000.00,028.5,026.6,000.0,037.2,030.1,24.5,0002.9,0004.65,0007.60,0004.30
2023-08-30 13:17:00,SystemResetWarning,0833.0,5.00,000.00,028.5,026.8,000.0,037.2,030.1,24.5,0002.8,0004.69,0007.55,0004.34
2023-08-30 13:18:00,SystemResetWarning,0833.3,5.00,000.00,028.6,026.9,000.0,037.2,030.1,24.5,0002.0,0004.69,0007.59,0004.33
2023-08-30 13:19:00,SystemResetWarning,0833.4,5.00,000.00,028.6,027.0,000.0,037.2,030.2,25.5,0001.5,0004.70,0008.02,0004.35
2023-08-30 13:20:00,SystemResetWarning,0833.2,5.00,000.00,028.6,027.1,000.0,037.2,030.2,26.1,0001.6,0004.75,0008.46,0004.38
2023-08-30 13:21:00,SystemResetWarning,0833.1,5.01,000.00,028.6,027.2,000.0,037.2,030.2,25.2,0001.3,0004.82,0008.58,0004.42
2023-08-30 13:22:00,SystemResetWarning,0833.1,5.00,000.00,028.6,027.3,000.0,037.2,030.3,25.1,0000.7,0004.84,0009.21,0004.44
2023-08-30 13:23:00,SystemResetWarning,0833.1,5.00,000.00,028.7,027.4,000.0,037.2,030.3,24.9,0000.4,0004.81,0009.91,0004.43
2023-08-30 13:24:00,SystemResetWarning,0833.1,5.00,000.00,028.7,027.4,000.0,037.3,030.3,24.8,0000.1,0004.79,0009.90,0004.42
2023-08-30 13:25:00,SystemResetWarning,0833.1,5.00,000.00,028.7,027.5,000.0,037.3,030.3,24.9,-000.2,0004.79,0009.82,0004.42
2023-08-30 13:26:00,SystemResetWarning,0833.1,5.00,000.00,028.7,027.5,000.0,037.3,030.4,24.9,-000.4,0004.80,0009.91,0004.42
2023-08-30 13:27:00,SystemResetWarning,0833.2,4.99,000.00,028.7,027.6,000.0,037.3,030.4,25.2,-000.2,0004.83,0010.06,0004.42
2023-08-30 13:28:00,SystemResetWarning,0833.2,5.00,000.00,028.8,027.6,000.0,037.3,030.4,27.2,0000.0,0004.84,0010.29,0004.44
2023-08-30 13:29:00,SystemResetWarning,0833.2,5.01,000.00,028.8,027.7,000.0,037.4,030.4,27.2,0000.4,0004.86,0010.47,0004.46
2023-08-30 13:30:00,SystemResetWarning,0833.2,5.01,000.00,028.8,027.7,000.0,037.4,030.5,27.8,0000.6,0004.83,0009.97,0004.46
2023-08-30 13:31:00,SystemResetWarning,0833.2,5.00,000.00,028.8,027.5,000.0,037.4,030.5,28.5,0000.6,0004.84,0009.62,0004.48
2023-08-30 13:32:00,SystemResetWarning,0833.2,4.99,000.00,028.8,025.9,000.0,037.2,030.2,28.6,0001.1,0004.85,0009.69,0004.50
2023-08-30 13:33:00,SystemResetWarning,0833.2,5.01,000.00,028.7,024.4,000.0,037.1,029.9,28.9,0001.8,0004.85,0009.10,0004.50
2023-08-30 13:34:00,SystemResetWarning,0833.1,5.00,000.00,028.6,024.2,000.0,037.0,029.7,28.9,0001.8,0004.88,0008.28,0004.54
2023-08-30 13:35:00,SystemResetWarning,0833.1,5.01,000.00,028.5,024.5,000.0,037.0,029.6,28.8,0002.0,0004.94,0008.39,0004.57
2023-08-30 13:36:00,SystemResetWarning,0833.2,4.98,000.00,028.4,024.9,000.0,037.1,029.6,28.9,0001.8,0004.96,0008.37,0004.59
2023-08-30 13:37:00,SystemResetWarning,0833.2,5.00,000.00,028.4,025.3,000.0,037.1,029.7,29.1,0001.9,0004.96,0008.48,0004.60
2023-08-30 13:38:00,SystemResetWarning,0833.2,5.00,000.00,028.4,025.7,000.0,037.1,029.8,29.1,0001.3,0004.94,0008.88,0004.60
2023-08-30 13:39:00,SystemResetWarning,0833.2,5.00,000.00,028.4,026.1,000.0,037.1,029.9,29.4,0001.2,0004.93,0008.66,0004.59
2023-08-30 13:40:00,SystemResetWarning,0833.2,5.02,000.00,028.4,026.3,000.0,037.1,029.9,29.3,0001.0,0004.92,0008.46,0004.59
2023-08-30 13:41:00,SystemResetWarning,0833.1,4.99,000.00,028.4,026.6,000.0,037.1,030.0,29.2,0001.4,0004.96,0008.51,0004.59
2023-08-30 13:42:00,SystemResetWarning,0833.2,4.99,000.00,028.4,026.8,000.0,037.1,030.0,28.7,0001.6,0004.97,0008.54,0004.59
2023-08-30 13:43:00,SystemResetWarning,0833.1,4.99,000.00,028.5,026.9,000.0,037.1,030.1,28.4,0001.7,0004.98,0008.44,0004.59
2023-08-30 13:44:00,SystemResetWarning,0833.2,5.00,000.00,028.5,027.1,000.0,037.1,030.1,28.2,0001.5,0005.00,0008.55,0004.59
2023-08-30 13:45:00,SystemResetWarning,0833.2,5.00,000.00,028.5,027.2,000.0,037.1,030.1,28.5,0001.1,0005.00,0008.55,0004.60
2023-08-30 13:46:00,SystemResetWarning,0833.2,5.01,000.00,028.5,027.3,000.0,037.1,030.2,28.7,0000.3,0004.99,0008.60,0004.60
2023-08-30 13:47:00,SystemResetWarning,0833.1,5.01,000.00,028.6,027.3,000.0,037.1,030.2,28.1,-000.1,0005.00,0008.64,0004.62
2023-08-30 13:48:00,SystemResetWarning,0833.2,5.00,000.00,028.6,027.4,000.0,037.1,030.3,28.1,-000.6,0004.99,0008.45,0004.64
2023-08-30 13:49:00,SystemResetWarning,0833.1,4.99,000.00,028.6,027.5,000.0,037.1,030.3,28.2,0000.1,0005.02,0007.96,0004.64
2023-08-30 13:50:00,SystemResetWarning,0833.1,5.00,000.00,028.6,027.5,000.0,037.2,030.3,28.4,0000.5,0005.05,0008.20,0004.64
2023-08-30 13:51:00,SystemResetWarning,0833.2,5.01,000.00,028.7,027.6,000.0,037.2,030.3,28.4,0000.6,0005.06,0008.48,0004.64
2023-08-30 13:52:00,SystemResetWarning,0833.2,5.01,000.00,028.7,027.6,000.0,037.2,030.4,28.2,0000.4,0005.03,0008.43,0004.63
2023-08-30 13:53:00,SystemResetWarning,0833.1,5.00,000.00,028.7,027.7,000.0,037.2,030.4,28.3,0000.1,0005.01,0008.64,0004.62
2023-08-30 13:54:00,SystemResetWarning,0833.0,5.00,000.00,028.8,027.7,000.0,037.3,030.4,28.3,-000.8,0005.00,0009.20,0004.62
2023-08-30 13:55:00,SystemResetWarning,0833.1,4.99,000.00,028.8,026.8,000.0,037.2,030.3,27.8,-000.8,0004.99,0009.13,0004.63
2023-08-30 13:56:00,SystemResetWarning,0833.1,4.99,000.00,028.7,025.0,000.0,037.0,029.9,27.6,-000.1,0005.00,0009.14,0004.63
2023-08-30 13:57:00,SystemResetWarning,0833.0,5.01,000.00,028.6,024.3,000.0,036.9,029.7,28.1,-000.0,0004.99,0009.17,0004.62
2023-08-30 13:58:00,SystemResetWarning,0833.0,5.00,000.00,028.5,024.5,000.0,036.9,029.6,28.6,0000.7,0005.00,0009.41,0004.62
2023-08-30 13:59:00,SystemResetWarning,0833.0,5.00,000.00,028.4,024.9,000.0,037.0,029.6,28.8,0000.0,0005.03,0009.51,0004.61
